Regional Weather Roundup
Issued by NWS

Home | Current Version | Previous Version | Text Only | Print | Product List | Glossary On
Versions: 1 2 3 4 5 6 7 8 9 10 11 12 13 14 15 16 17 18 19 20 21 22 23 24 25 26 27 28 29 30 31 32 33 34 35 36 37 38 39 40 41 42 43 44 45 46 47 48 49 50
000
ASUS42 KFFC 180510
RWRGA
WEATHER ROUNDUP FOR GEORGIA
NATIONAL WEATHER SERVICE PEACHTREE CITY GA
1200 AM EST SUN FEB 18 2018

NOTE: "FAIR" INDICATES FEW OR NO CLOUDS BELOW 12,000 FEET WITH NO
SIGNIFICANT WEATHER AND/OR OBSTRUCTIONS TO VISIBILITY.

* = USE WITH CAUTION. THE STATIONS MARKED WITH AN ASTERISK MAY NOT
REPORT WEATHER SUCH AS PRECIPITATION, FOG, OR THUNDER AND ARE NOT
QUALITY CONTROLLED BY NWS.

THE REMARK "TC" DENOTES TEMPERATURE READING IN DEGREES CELSIUS.

GAZ001>058-180600-
NORTH GEORGIA

CITY           SKY/WX    TMP DP  RH WIND       PRES   REMARKS
ATLANTA        LGT RAIN  62  60  93 NW13      30.13R
ATHENS         CLOUDY    56  53  90 W5        30.11F
CHAMBLEE       CLOUDY    59  56  89 W9        30.13S
PEACHTREE CITY CLOUDY    65  61  87 NW8       30.15S
ROME           CLOUDY    56  52  86 N10       30.17R
WEST ATLANTA   LGT RAIN  61  59  93 W9        30.13S
GAINESVILLE    MOCLDY    58  57  97 W10       30.11F
CARTERSVILLE   CLOUDY    57  56  96 CALM      30.16S


CITY           SKY/WX    TMP DP  RH WIND       PRES   REMARKS
DALTON*        CLOUDY    52  50  93 N8        30.19R
LAWRENCEVILLE* CLOUDY    60  57  89 W8          N/A
MARIETTA       MOCLDY    58  56  91 W10       30.13R
KENNESAW*      CLOUDY    57  55  94 W9        30.16R
CANTON*        DRIZZLE   55  55 100 NW8G20    30.14R
BLAIRSVILLE*   CLOUDY    50  48  94 N6        30.16S
$$

GAZ059>098-102>109-180600-
CENTRAL GEORGIA

CITY           SKY/WX    TMP DP  RH WIND       PRES   REMARKS
AUGUSTA-BUSH   MOCLDY    56  55  97 CALM      30.09S
AUGUSTA-DANIEL CLOUDY    59  55  87 CALM      30.10F
COLUMBUS       CLOUDY    68  57  68 SW3       30.12R
MACON          MOCLDY    65  57  75 W3        30.11S
ROBINS AFB     MOCLDY    67  58  72 SW6       30.10F


CITY           SKY/WX    TMP DP  RH WIND       PRES   REMARKS
LAGRANGE*      RAIN      67  65  92 NW10      30.14S
SYLVANIA*      FAIR      67  64  89 CALM      30.13S
MILLEDGEVILLE* CLOUDY    63  59  88 CALM      30.11S
$$

GAZ099>101-110>166-180600-
SOUTH GEORGIA

CITY           SKY/WX    TMP DP  RH WIND       PRES   REMARKS
SAVANNAH       FAIR      66  61  84 S8        30.13S
VALDOSTA       CLOUDY    65  64  97 S8        30.17S
ALMA           FAIR      64  59  83 S5        30.14S
ST SIMONS      FAIR      66  61  84 SW8       30.16S
FT STEWART     FAIR      67  59  74 SW7       30.12S
ALBANY         FAIR      66  61  84 SW6       30.16S
HUNTER AFB     FAIR      65  62  90 SW5       30.11S
MOODY AFB      FAIR      63  63 100 SW8       30.14F
BRUNSWICK      FAIR      66  59  77 SW7       30.17S


CITY           SKY/WX    TMP DP  RH WIND       PRES   REMARKS
BAINBRIDGE*    FAIR      68  64  88 SW5       30.16S
MOULTRIE*      FAIR      64  63  94 CALM      30.16S
VIDALIA*       FAIR      63  63 100 SW3       30.13S
WAYCROSS*      FAIR      64  61  90 SW6       30.15F
DOUGLAS*       FAIR      63  61  94 SW3       30.16S
$$




USA.gov is the U.S. government's official web portal to all federal, state and local government web resources and services.